Location: Boissi�res
(45.2500°N, 2.3667°E)
Time: 14:48:18
(UTC+00:00)

BREEZE-M DEB (TANK) - Pass Details

Date: 03 March 2021
Orbit: 309 x 15401 km, 49.5° (Epoch: 22 April)

Event Time Altitude Azimuth Distance (km) Brightness Sun altitude
Rises 19:40:23 0° 289° (WNW) 2,117 6.8 -21.8°
Reaches altitude 10° 19:41:47 10° 296° (WNW) 1,441 5.5 -22.0°
Maximum altitude 19:44:27 49° 15° (NNE) 766 2.9 -22.4°
Enters shadow 19:44:54 47° 39° (NE) 850 3.0 -22.5°
